Flag for Brazil Weather past 2 weeks in Niterói, Rio de Janeiro, Brazil

Now
70 °F

Clear.


Feels Like: 70 °F
Forecast: N/A
Wind: 14 mph from Southwest

Location: Rio De Janeiro Airport

Current Time: Aug 29, 2015 at 6:28:47 PM

Latest Report: Aug 29, 2015 at 6:00 PM


Visibility: 10 mi

Pressure: 30.09 "Hg

Humidity: 78%

Dew point: 63 °F

Location of NiteróiLocation

Historic Weather in Niterói — Graph

°F

Niterói temperature yesterday

Maximum temperature yesterday: 81 °F (at 11:00 AM)
Minimum temperature yesterday: 66 °F (at 11:00 PM)
Average temperature yesterday: 72 °F

Past Weeks' High & Low Weather Summary

 TemperatureHumidityPressure
High86 °F (Aug 18, 1:00 PM)100% (Aug 21, 1:00 AM)30.24 "Hg (Aug 21, 1:00 AM)
Low64 °F (Aug 21, 1:00 AM)38% (Aug 18, 1:00 PM)29.80 "Hg (Aug 19, 3:00 PM)
Average72 °F76%30.06 "Hg
* Reported Aug 14 5:00 PM — Aug 29 5:00 PM, Niterói, Weather by CustomWeather, © 2015

Note: Actual official high and low records may vary slightly from our data, if they occured in-between our weather recording intervals... More about our weather records

Advertising

Niterói weather history for previous 24 hours

 ConditionsComfort  
Time TempWeatherWind HumidityBarometerVisibility
5:00 PM
Sat, Aug 29
73 °FClear.14 mph69%30.09 "Hg10 mi
4:00 PM75 °FPassing clouds.13 mph65%30.09 "HgN/A
3:00 PM75 °FPassing clouds.13 mph65%30.09 "HgN/A
2:00 PM77 °FPassing clouds.13 mph61%30.12 "HgN/A
1:00 PM77 °FPassing clouds.13 mph65%30.18 "HgN/A
12:00 PM77 °FPassing clouds.12 mph65%30.18 "HgN/A
11:00 AM75 °FPassing clouds.12 mph69%30.21 "HgN/A
10:00 AM75 °FScattered clouds.7 mph65%30.21 "HgN/A
9:00 AM73 °FPassing clouds.5 mph69%30.24 "HgN/A
8:00 AM70 °FScattered clouds.3 mph78%30.21 "HgN/A
7:00 AM70 °FScattered clouds.5 mph78%30.21 "HgN/A
6:00 AM68 °FPartly sunny.1 mph83%30.18 "HgN/A
5:00 AM66 °FPassing clouds.3 mph94%30.18 "HgN/A
4:00 AM66 °FPassing clouds.1 mph94%30.15 "HgN/A
3:00 AM64 °FPassing clouds.2 mph94%30.15 "HgN/A
2:00 AM64 °FPassing clouds.3 mph94%30.15 "HgN/A
1:00 AM64 °FPassing clouds.3 mph94%30.18 "HgN/A
12:00 AM66 °FPassing clouds.2 mph88%30.21 "HgN/A
11:00 PM
Fri, Aug 28
66 °FPassing clouds.5 mph88%30.21 "HgN/A
10:00 PM68 °FPassing clouds.8 mph88%30.21 "HgN/A
9:00 PM70 °FPassing clouds.10 mph83%30.21 "HgN/A
8:00 PM70 °FPassing clouds.10 mph88%30.18 "HgN/A
7:00 PM70 °FPassing clouds.13 mph88%30.18 "HgN/A
6:00 PM72 °FPassing clouds.15 mph78%30.15 "HgN/A
Weather by CustomWeather, © 2015

See weather overviewHow to use our weather pages